Location: Unspecified
(0.0000°N, 0.0000°E)
Time: 09:17:30
(UTC+00:00)

Kosmos-1429 - Pass Details

Date: 01 March 2024
Orbit: 1466 x 1518 km, 74.0° (Epoch: 13 April)

Event Time Altitude Azimuth Distance (km) Brightness Sun altitude
Rises 04:08:52 0° 158° (SSE) 4,581 ? -30.6°
Reaches altitude 10° 04:13:14 10° 139° (SE) 3,605 ? -29.5°
Maximum altitude 04:18:20 17° 102° (ESE) 3,107 ? -28.2°
Drops below altitude 10° 04:23:26 10° 66° (ENE) 3,620 ? -27.0°
Sets 04:27:44 0° 47° (NE) 4,607 ? -25.9°
